DW2851 Staxton UK current weather conditions

sailwx.info

Wind from 205 at 5 knots gusting 9

Air temperature 16.7° C
Dewpoint 14.5° C

Last reported at 2019-Aug-23 04:55 UTC.
Time now 2019-Aug-23 05:28 UTC

Location: N 54°12' W 000°26'.
View on Google Maps.

See reports from other nearby stations

  
Tides and Currents Weather Stations Pressure Air Temp Water Temp Dewpoint Dewpoint Depression Visibility Wind Speed Wind Dir Waves Ship Positions
date/time (UTC)wind fromknots sea level pressurealtimeterstation pressurevisibilityair tempwater tempwave heightnotes
2019-Aug-23 05:00 246 4 gusting 10 16.7
2019-Aug-23 04:55 205 5 gusting 9 16.7
2019-Aug-23 04:45 221 7 gusting 14 16.7
2019-Aug-23 04:40 238 6 gusting 13 16.7
2019-Aug-23 04:35 225 6 gusting 13 16.7
2019-Aug-23 04:25 210 6 gusting 15 16.7
2019-Aug-23 04:20 206 6 gusting 15 16.7
2019-Aug-23 04:10 215 6 gusting 12 16.1
2019-Aug-23 04:00 202 6 gusting 14 16.1
2019-Aug-23 03:55 198 6 gusting 14 16.1
2019-Aug-23 03:50 175 6 gusting 13 16.1
2019-Aug-23 03:40 200 6 gusting 10 16.1
2019-Aug-23 03:35 209 5 gusting 10 16.1
2019-Aug-23 03:30 203 6 gusting 11 16.1
2019-Aug-23 03:25 218 6 gusting 11 16.1
2019-Aug-23 03:20 181 6 gusting 11 16.1
2019-Aug-23 03:15 209 5 gusting 11 16.1
2019-Aug-23 03:10 242 5 gusting 10 16.1
2019-Aug-23 03:05 233 6 gusting 10 16.1
2019-Aug-23 02:55 228 6 gusting 14 16.7
2019-Aug-23 02:46 182 6 gusting 11 16.7
2019-Aug-23 02:40 211 6 gusting 11 16.7
2019-Aug-23 02:35 200 6 gusting 13 16.7
2019-Aug-23 02:32 192 7 gusting 13 16.7
2019-Aug-23 02:26 215 6 gusting 12 16.7
2019-Aug-23 02:20 209 7 gusting 14 16.7
2019-Aug-23 02:16 234 6 gusting 14 16.7
2019-Aug-23 02:11 217 6 gusting 10 16.7
2019-Aug-23 02:05 207 6 gusting 12 16.7
2019-Aug-23 02:02 211 6 gusting 11 16.7
2019-Aug-23 01:56 211 5 gusting 11 17.2
2019-Aug-23 01:50 213 4 gusting 13 17.2
2019-Aug-23 01:46 227 6 gusting 15 17.2
2019-Aug-23 01:40 236 6 gusting 15 17.2
2019-Aug-23 01:35 210 6 gusting 12 17.2
2019-Aug-23 01:30 247 5 gusting 12 17.2
2019-Aug-23 01:25 198 6 gusting 12 17.2
2019-Aug-23 01:20 257 6 gusting 13 17.2
2019-Aug-23 01:16 257 5 gusting 13 17.2
2019-Aug-23 01:10 228 4 gusting 12 17.2
2019-Aug-23 01:05 223 4 gusting 12 17.2
2019-Aug-23 01:01 206 7 gusting 12 17.2
2019-Aug-23 00:55 217 3 gusting 8 17.2
2019-Aug-23 00:50 211 3 gusting 13 17.2
2019-Aug-23 00:46 236 5 gusting 13 17.2
2019-Aug-23 00:40 194 4 gusting 12 17.2
2019-Aug-23 00:35 246 6 gusting 13 17.2
2019-Aug-23 00:31 211 5 gusting 11 17.2
2019-Aug-23 00:25 254 4 gusting 11 17.2
2019-Aug-23 00:20 215 5 gusting 12 17.8
2019-Aug-23 00:16 232 6 gusting 13 17.8
2019-Aug-23 00:10 240 6 gusting 13 17.8
2019-Aug-23 00:05 189 5 gusting 14 17.8
2019-Aug-23 00:01 213 3 gusting 13 17.8
2019-Aug-22 23:55 231 6 gusting 13 17.8
2019-Aug-22 23:50 217 6 gusting 14 17.8
2019-Aug-22 23:46 240 6 gusting 15 17.8
2019-Aug-22 23:40 222 6 gusting 15 17.8
2019-Aug-22 23:35 221 7 gusting 14 17.8
2019-Aug-22 23:31 248 6 gusting 12 17.8
2019-Aug-22 23:25 251 6 gusting 13 17.8
2019-Aug-22 23:20 236 6 gusting 14 17.8
2019-Aug-22 23:15 221 6 gusting 14 17.8
2019-Aug-22 23:10 257 7 gusting 14 17.8
2019-Aug-22 23:05 280 6 gusting 15 17.8
2019-Aug-22 23:00 235 6 gusting 13 17.8
2019-Aug-22 22:55 234 6 gusting 18 17.8
2019-Aug-22 22:50 211 6 gusting 18 17.8
2019-Aug-22 22:45 241 6 gusting 14 17.8
2019-Aug-22 22:40 243 6 gusting 14 17.8
2019-Aug-22 22:35 242 6 gusting 14 17.8
2019-Aug-22 22:30 240 7 gusting 14 17.8
2019-Aug-22 22:25 242 6 gusting 13 17.8
2019-Aug-22 22:20 206 6 gusting 14 17.8
2019-Aug-22 22:15 196 6 gusting 13 17.8
2019-Aug-22 22:10 221 5 gusting 11 18.3
2019-Aug-22 22:05 228 5 gusting 17 18.3
2019-Aug-22 22:00 229 9 gusting 17 18.3
2019-Aug-22 21:55 232 6 gusting 15 18.3
2019-Aug-22 21:50 223 6 gusting 13 18.3
2019-Aug-22 21:45 234 5 gusting 15 18.3
2019-Aug-22 21:40 259 8 gusting 15 18.3
2019-Aug-22 21:35 225 7 gusting 15 18.3
2019-Aug-22 21:30 225 7 gusting 15 18.3
2019-Aug-22 21:25 215 7 gusting 15 18.3
2019-Aug-22 21:20 219 7 gusting 16 18.3
2019-Aug-22 21:15 225 8 gusting 16 18.3
2019-Aug-22 21:10 259 6 gusting 16 18.3
2019-Aug-22 21:00 213 6 gusting 16 18.3
2019-Aug-22 20:55 258 6 gusting 16 18.3
2019-Aug-22 20:45 218 3 gusting 15 18.3
2019-Aug-22 20:40 244 8 gusting 15 18.3
2019-Aug-22 20:35 230 6 gusting 16 18.3
2019-Aug-22 20:25 203 7 gusting 16 18.9
2019-Aug-22 20:20 221 6 gusting 17 18.9
2019-Aug-22 20:15 207 6 gusting 17 18.9
2019-Aug-22 20:10 221 6 gusting 11 18.9
2019-Aug-22 20:05 216 6 gusting 14 18.9
2019-Aug-22 19:55 240 7 gusting 16 18.9
2019-Aug-22 19:50 198 6 gusting 16 18.9
2019-Aug-22 19:40 235 6 gusting 13 18.9
2019-Aug-22 19:30 231 6 gusting 17 18.9
2019-Aug-22 19:25 224 6 gusting 13 19.4
2019-Aug-22 19:20 289 6 gusting 13 19.4
2019-Aug-22 19:10 232 6 gusting 13 19.4
2019-Aug-22 19:05 223 6 gusting 17 19.4
2019-Aug-22 18:55 228 6 gusting 13 19.4
2019-Aug-22 18:50 228 6 gusting 12 19.4
2019-Aug-22 18:45 223 6 gusting 12 19.4
2019-Aug-22 18:40 233 6 gusting 14 19.4
2019-Aug-22 18:35 237 6 gusting 16 19.4
2019-Aug-22 18:25 214 6 gusting 13 19.4
2019-Aug-22 18:20 214 6 gusting 13 20.0
2019-Aug-22 18:10 236 7 gusting 17 20.0
2019-Aug-22 18:05 249 7 gusting 13 20.0
2019-Aug-22 18:00 230 7 gusting 16 20.0
2019-Aug-22 17:55 240 6 gusting 16 20.0
2019-Aug-22 17:50 190 6 gusting 12 20.0
2019-Aug-22 17:45 215 7 gusting 18 20.0
2019-Aug-22 17:40 209 8 gusting 18 20.0
2019-Aug-22 17:35 218 6 gusting 12 20.0
2019-Aug-22 17:25 217 6 gusting 13 20.0
2019-Aug-22 17:20 224 4 gusting 13 20.0
2019-Aug-22 17:15 209 5 gusting 13 20.0
2019-Aug-22 17:10 249 6 gusting 15 20.0
2019-Aug-22 17:05 228 6 gusting 15 20.0
2019-Aug-22 17:00 197 6 gusting 15 20.0
2019-Aug-22 16:55 231 6 gusting 15 20.0
2019-Aug-22 16:50 200 7 gusting 17 20.0
2019-Aug-22 16:45 242 5 gusting 13 20.0
2019-Aug-22 16:40 243 5 gusting 13 20.0
2019-Aug-22 16:35 248 5 gusting 11 20.0
2019-Aug-22 16:30 217 4 gusting 16 20.0
2019-Aug-22 16:25 242 5 gusting 16 20.0
2019-Aug-22 16:20 234 6 gusting 12 20.0
2019-Aug-22 16:15 246 5 gusting 12 20.0
2019-Aug-22 16:10 240 7 gusting 12 20.0
2019-Aug-22 16:05 223 5 gusting 16 19.4
2019-Aug-22 15:55 206 6 gusting 12 19.4
2019-Aug-22 15:50 238 5 gusting 12 19.4
2019-Aug-22 15:45 202 5 gusting 17 19.4
2019-Aug-22 15:40 257 8 gusting 17 19.4
2019-Aug-22 15:35 240 7 gusting 17 18.9
2019-Aug-22 15:30 206 6 gusting 16 18.9
2019-Aug-22 15:21 227 7 gusting 15 18.9
2019-Aug-22 15:16 229 6 gusting 15 18.9
2019-Aug-22 15:11 214 6 gusting 14 19.4
2019-Aug-22 15:06 239 6 gusting 14 19.4
2019-Aug-22 15:02 248 6 gusting 13 19.4
2019-Aug-22 14:56 221 4 gusting 12 19.4
2019-Aug-22 14:51 238 5 gusting 13 19.4
2019-Aug-22 14:46 225 6 gusting 13 20.0
2019-Aug-22 14:40 213 7 gusting 13 20.0
2019-Aug-22 14:36 255 5 gusting 14 20.0
2019-Aug-22 14:32 241 6 gusting 16 20.6
2019-Aug-22 14:25 244 7 gusting 20 20.6
2019-Aug-22 14:20 264 10 gusting 20 20.6
2019-Aug-22 14:16 258 6 gusting 18 20.6
2019-Aug-22 14:10 240 6 gusting 18 20.6
2019-Aug-22 14:06 246 9 gusting 16 21.1
2019-Aug-22 14:01 223 6 gusting 15 21.1
2019-Aug-22 13:55 273 7 gusting 16 21.1
2019-Aug-22 13:50 247 7 gusting 16 21.1
2019-Aug-22 13:46 221 6 gusting 15 20.6
2019-Aug-22 13:40 214 6 gusting 18 20.0
2019-Aug-22 13:35 231 6 gusting 17 20.0
2019-Aug-22 13:31 205 8 gusting 14 19.4
2019-Aug-22 13:25 269 6 gusting 14 19.4
2019-Aug-22 13:20 248 6 gusting 13 18.9
2019-Aug-22 13:17 249 4 gusting 13 18.3
2019-Aug-22 13:10 210 6 gusting 18 18.3
2019-Aug-22 13:05 234 9 gusting 18 18.3
2019-Aug-22 13:01 218 7 gusting 18 18.9
2019-Aug-22 12:55 219 9 gusting 21 18.9
2019-Aug-22 12:50 203 10 gusting 18 19.4
2019-Aug-22 12:46 229 6 gusting 19 19.4
2019-Aug-22 12:40 218 7 gusting 19 19.4
2019-Aug-22 12:35 232 6 gusting 12 19.4
2019-Aug-22 12:31 221 6 gusting 15 19.4
2019-Aug-22 12:25 219 7 gusting 15 19.4
2019-Aug-22 12:20 217 7 gusting 14 19.4
2019-Aug-22 12:16 210 6 gusting 13 19.4
2019-Aug-22 12:10 212 6 gusting 14 19.4
2019-Aug-22 12:05 198 7 gusting 17 18.9
2019-Aug-22 12:01 249 7 gusting 17 18.9
2019-Aug-22 11:55 218 8 gusting 16 18.9
2019-Aug-22 11:50 229 6 gusting 10 18.9
2019-Aug-22 11:46 226 4 gusting 12 18.9
2019-Aug-22 11:40 227 6 gusting 13 18.3
2019-Aug-22 11:35 209 6 gusting 13 18.3
2019-Aug-22 11:31 269 6 gusting 14 18.3
2019-Aug-22 11:25 254 6 gusting 14 18.3
2019-Aug-22 11:20 233 6 gusting 13 18.9
2019-Aug-22 11:16 216 7 gusting 12 18.3
2019-Aug-22 11:10 222 6 gusting 12 18.3
2019-Aug-22 11:05 216 4 gusting 13 18.3
2019-Aug-22 11:02 207 4 gusting 13 18.9
2019-Aug-22 10:55 245 6 gusting 13 18.9
2019-Aug-22 10:50 225 6 gusting 14 18.9
2019-Aug-22 10:46 221 4 gusting 13 18.9
2019-Aug-22 10:40 198 6 gusting 13 18.9
2019-Aug-22 10:35 207 6 gusting 13 19.4
2019-Aug-22 10:31 229 5 gusting 13 19.4
2019-Aug-22 10:25 236 6 gusting 17 19.4
2019-Aug-22 10:20 251 7 gusting 17 19.4
2019-Aug-22 10:15 232 8 gusting 13 19.4
2019-Aug-22 10:10 223 5 gusting 12 19.4
2019-Aug-22 10:05 239 4 gusting 12 18.9
2019-Aug-22 10:01 221 4 gusting 13 18.9
2019-Aug-22 09:55 238 6 gusting 16 18.9
2019-Aug-22 09:50 206 7 gusting 16 18.3
2019-Aug-22 09:46 204 6 gusting 9 18.3
2019-Aug-22 09:40 213 5 gusting 11 17.8
2019-Aug-22 09:35 199 4 gusting 12 17.8
2019-Aug-22 09:31 209 5 gusting 12 17.8
2019-Aug-22 09:25 198 5 gusting 12 17.2
2019-Aug-22 09:20 235 6 gusting 12 17.2
2019-Aug-22 09:16 199 5 gusting 14 17.2
2019-Aug-22 09:10 190 6 gusting 14 16.7
2019-Aug-22 09:05 150 6 gusting 11 16.7
2019-Aug-22 09:00 215 6 gusting 11 16.7
2019-Aug-22 08:55 231 6 gusting 13 16.7
2019-Aug-22 08:50 188 7 gusting 13 16.7
2019-Aug-22 08:46 192 7 gusting 13 16.7
2019-Aug-22 08:40 169 7 gusting 15 16.1
2019-Aug-22 08:35 219 7 gusting 15 16.1
2019-Aug-22 08:30 171 6 gusting 14 16.1
2019-Aug-22 08:25 213 7 gusting 13 16.1
2019-Aug-22 08:20 197 6 gusting 13 15.6
2019-Aug-22 08:15 206 7 gusting 13 15.6
2019-Aug-22 08:10 188 6 gusting 11 15.6
2019-Aug-22 08:00 193 8 gusting 14 15.6
2019-Aug-22 07:55 179 8 gusting 13 15.0
2019-Aug-22 07:50 170 8 gusting 15 15.0
2019-Aug-22 07:40 202 6 gusting 11 15.0
2019-Aug-22 07:35 198 5 gusting 10 15.0
2019-Aug-22 07:30 181 6 gusting 10 15.0
2019-Aug-22 07:25 194 6 gusting 9 15.0
2019-Aug-22 07:20 192 5 gusting 8 15.0
2019-Aug-22 07:15 196 5 gusting 8 15.0
2019-Aug-22 07:10 190 5 gusting 10 15.0
2019-Aug-22 07:05 178 5 gusting 10 15.0
2019-Aug-22 07:00 196 5 gusting 9 15.0
2019-Aug-22 06:55 214 4 gusting 9 15.0
2019-Aug-22 06:50 159 5 gusting 10 15.0
2019-Aug-22 06:45 160 5 gusting 8 15.0
2019-Aug-22 06:40 205 1 gusting 8 15.0
2019-Aug-22 06:30 188 3 gusting 9 15.0
2019-Aug-22 06:25 183 6 gusting 13 15.0
2019-Aug-22 06:20 194 6 gusting 13 15.0
2019-Aug-22 06:15 171 6 gusting 12 15.0
2019-Aug-22 06:05 175 6 gusting 11 15.0
2019-Aug-22 06:01 188 6 gusting 12 15.0
2019-Aug-22 05:55 197 6 gusting 9 15.0
2019-Aug-22 05:51 200 4 gusting 9 15.0
2019-Aug-22 05:48 164 6 gusting 9 15.0
2019-Aug-22 05:41 190 4 gusting 8 15.0
2019-Aug-22 05:35 193 4 gusting 7 15.0
2019-Aug-22 05:31 209 5 gusting 7 15.0
2019-Aug-22 05:25 211 4 gusting 7 15.0
2019-Aug-22 05:20 215 4 gusting 7 15.0
2019-Aug-22 05:18 215 3 gusting 7 15.0
2019-Aug-22 05:10 224 4 gusting 7 15.0
2019-Aug-22 05:05 205 4 gusting 6 15.0
2019-Aug-22 05:01 215 3 gusting 8 15.0
2019-Aug-22 04:55 219 4 gusting 10 15.0
2019-Aug-22 04:50 237 4 gusting 10 15.0
2019-Aug-22 04:46 242 3 gusting 11 15.0
2019-Aug-22 04:40 238 4 gusting 15 15.0
2019-Aug-22 04:35 188 7 gusting 15 15.0
2019-Aug-22 04:31 205 6 gusting 14 15.0
2019-Aug-22 04:25 174 6 gusting 14 15.0
2019-Aug-22 04:20 192 6 gusting 14 15.0
2019-Aug-22 04:17 205 6 gusting 12 15.0
2019-Aug-22 04:10 205 7 gusting 11 15.0
2019-Aug-22 04:05 191 6 gusting 13 15.0
2019-Aug-22 04:01 192 6 gusting 13 15.0
2019-Aug-22 03:55 223 6 gusting 13 15.0
2019-Aug-22 03:50 207 6 gusting 12 15.0
2019-Aug-22 03:46 209 6 gusting 12 15.0
2019-Aug-22 03:40 229 6 gusting 14 15.0
2019-Aug-22 03:35 192 6 gusting 13 15.0
2019-Aug-22 03:32 175 7 gusting 13 15.0
2019-Aug-22 03:25 196 7 gusting 15 15.0
2019-Aug-22 03:20 213 7 gusting 15 15.0
2019-Aug-22 03:16 216 9 gusting 17 15.0
2019-Aug-22 03:10 207 9 gusting 17 15.0
2019-Aug-22 03:05 198 9 gusting 17 15.0
2019-Aug-22 03:01 183 9 gusting 17 15.0
2019-Aug-22 02:55 252 6 gusting 13 15.0
2019-Aug-22 02:50 207 10 gusting 15 15.0
2019-Aug-22 02:46 193 8 gusting 15 15.0
2019-Aug-22 02:40 205 6 gusting 15 15.0
2019-Aug-22 02:35 211 8 gusting 14 15.0
2019-Aug-22 02:31 205 7 gusting 13 15.0
2019-Aug-22 02:25 232 6 gusting 16 15.0
2019-Aug-22 02:20 241 7 gusting 16 15.6
2019-Aug-22 02:16 229 8 gusting 15 15.6
2019-Aug-22 02:10 201 9 gusting 14 15.6
2019-Aug-22 02:05 192 7 gusting 17 15.6
2019-Aug-22 02:00 217 8 gusting 17 15.6
2019-Aug-22 01:55 197 7 gusting 13 15.6
2019-Aug-22 01:50 200 6 gusting 19 15.6
2019-Aug-22 01:46 204 8 gusting 19 15.6
2019-Aug-22 01:40 202 7 gusting 15 15.6
2019-Aug-22 01:35 189 8 gusting 15 15.6
2019-Aug-22 01:30 190 7 gusting 13 15.6
2019-Aug-22 01:25 223 7 gusting 14 15.6
2019-Aug-22 01:20 202 7 gusting 14 15.6
2019-Aug-22 01:16 209 6 gusting 13 15.6
2019-Aug-22 01:10 229 6 gusting 9 15.6
2019-Aug-22 01:05 196 5 gusting 8 15.6
2019-Aug-22 01:00 177 5 gusting 9 15.6
2019-Aug-22 00:55 225 5 gusting 8 15.6
2019-Aug-22 00:50 246 4 gusting 11 15.6
2019-Aug-22 00:45 200 5 gusting 13 15.6
2019-Aug-22 00:40 205 3 gusting 13 15.6
2019-Aug-22 00:35 208 5 gusting 10 15.6
2019-Aug-22 00:30 205 6 gusting 10 15.6
2019-Aug-22 00:25 198 6 gusting 13 15.6
2019-Aug-22 00:20 201 6 gusting 14 15.6
2019-Aug-22 00:15 218 6 gusting 14 15.6
2019-Aug-22 00:10 217 6 gusting 13 15.6
2019-Aug-22 00:05 194 6 gusting 11 15.6
2019-Aug-21 23:55 227 5 gusting 13 15.6
2019-Aug-21 23:50 224 6 gusting 13 15.6
2019-Aug-21 23:45 226 6 gusting 13 15.6
2019-Aug-21 23:40 202 4 gusting 12 15.6
2019-Aug-21 23:35 203 5 gusting 10 15.6
2019-Aug-21 23:25 248 7 gusting 15 16.1
2019-Aug-21 23:20 213 6 gusting 13 16.1
2019-Aug-21 23:15 207 6 gusting 15 15.6
2019-Aug-21 23:10 223 5 gusting 15 15.6
2019-Aug-21 23:05 222 5 gusting 11 15.6
2019-Aug-21 23:00 219 4 gusting 9 15.6
2019-Aug-21 22:55 244 4 gusting 9 15.6
2019-Aug-21 22:50 211 5 gusting 9 15.6
2019-Aug-21 22:40 199 5 gusting 10 15.6
2019-Aug-21 22:35 209 5 gusting 13 15.6
2019-Aug-21 22:30 214 5 gusting 13 15.6
2019-Aug-21 22:25 217 7 gusting 14 15.6
2019-Aug-21 22:20 205 5 gusting 12 15.6
2019-Aug-21 22:15 225 4 gusting 10 15.6
2019-Aug-21 22:06 234 4 gusting 13 15.6
2019-Aug-21 22:02 234 6 gusting 13 15.6
2019-Aug-21 21:56 202 6 gusting 10 15.6
2019-Aug-21 21:51 191 6 gusting 11 15.6
2019-Aug-21 21:47 187 6 gusting 12 15.6
2019-Aug-21 21:40 209 6 gusting 10 15.6
2019-Aug-21 21:35 211 4 gusting 8 15.6
2019-Aug-21 21:32 204 3 gusting 8 15.6
2019-Aug-21 21:25 197 5 gusting 8 15.6
2019-Aug-21 21:21 208 5 gusting 8 15.6
2019-Aug-21 21:17 189 5 gusting 10 15.6
2019-Aug-21 21:10 200 5 gusting 10 15.6
2019-Aug-21 21:05 256 6 gusting 9 15.6
2019-Aug-21 21:01 185 6 gusting 10 15.6
2019-Aug-21 20:55 227 6 gusting 10 15.6
2019-Aug-21 20:50 204 6 gusting 12 15.6
2019-Aug-21 20:46 188 5 gusting 11 15.6
2019-Aug-21 20:40 187 6 gusting 9 15.6
2019-Aug-21 20:35 199 5 gusting 9 15.6
2019-Aug-21 20:31 216 6 gusting 12 15.6
2019-Aug-21 20:25 185 5 gusting 12 15.6
2019-Aug-21 20:20 198 6 gusting 10 15.6
2019-Aug-21 20:17 235 5 gusting 11 15.6
2019-Aug-21 20:10 182 5 gusting 11 15.6
2019-Aug-21 20:05 194 5 gusting 10 15.6
2019-Aug-21 20:02 205 5 gusting 9 15.6
2019-Aug-21 19:55 192 5 gusting 8 15.6
2019-Aug-21 19:51 216 4 gusting 8 15.6
2019-Aug-21 19:46 196 5 gusting 10 15.6
2019-Aug-21 19:40 184 6 gusting 10 15.6
2019-Aug-21 19:36 200 6 gusting 9 15.6
2019-Aug-21 19:31 192 6 gusting 10 15.6
2019-Aug-21 19:25 192 6 gusting 12 15.6
2019-Aug-21 19:20 207 6 gusting 13 15.6
2019-Aug-21 19:16 199 7 gusting 13 15.6
2019-Aug-21 19:10 182 7 gusting 13 16.1
2019-Aug-21 19:05 182 6 gusting 13 16.1
2019-Aug-21 19:01 198 6 gusting 13 16.7
2019-Aug-21 18:55 199 5 gusting 7 16.7
2019-Aug-21 18:50 201 3 gusting 7 16.7
2019-Aug-21 18:46 213 3 gusting 8 17.2
2019-Aug-21 18:40 229 2 gusting 8 17.2
2019-Aug-21 18:35 233 2 gusting 15 17.2
2019-Aug-21 18:32 217 6 gusting 15 17.2
2019-Aug-21 18:25 206 6 gusting 12 17.8
2019-Aug-21 18:20 226 2 gusting 6 17.8
2019-Aug-21 18:17 222 3 gusting 6 17.8
2019-Aug-21 18:10 190 2 gusting 7 17.2
2019-Aug-21 18:05 214 3 gusting 7 17.2
2019-Aug-21 18:01 201 3 gusting 6 17.2
2019-Aug-21 17:55 192 2 gusting 9 17.2
2019-Aug-21 17:50 180 3 gusting 6 17.2
2019-Aug-21 17:46 194 3 gusting 6 17.2
2019-Aug-21 17:40 205 2 gusting 6 17.2
2019-Aug-21 17:35 211 3 gusting 6 17.2
2019-Aug-21 17:31 203 1 gusting 8 17.2
2019-Aug-21 17:25 211 4 gusting 8 17.2
2019-Aug-21 17:20 207 4 gusting 8 17.2
2019-Aug-21 17:16 207 3 gusting 6 17.2
2019-Aug-21 17:10 201 2 gusting 7 17.2
2019-Aug-21 17:05 192 4 gusting 8 17.2
2019-Aug-21 17:01 223 3 gusting 8 17.2
2019-Aug-21 16:55 210 3 gusting 7 17.2
2019-Aug-21 16:50 225 4 gusting 9 17.2
2019-Aug-21 16:46 205 4 gusting 10 17.2
2019-Aug-21 16:40 218 6 gusting 13 17.8
2019-Aug-21 16:35 222 5 gusting 19 18.3
2019-Aug-21 16:30 345 4 gusting 15 18.3
2019-Aug-21 16:25 231 6 gusting 15 18.9
2019-Aug-21 16:20 203 4 gusting 9 19.4
2019-Aug-21 16:16 214 3 gusting 8 19.4
2019-Aug-21 16:10 210 4 gusting 8 20.0
2019-Aug-21 16:05 209 4 gusting 11 20.0
2019-Aug-21 16:01 219 6 gusting 14 20.0
2019-Aug-21 15:55 194 6 gusting 14 20.6
2019-Aug-21 15:50 203 6 gusting 11 20.6
2019-Aug-21 15:46 195 4 gusting 8 21.1
2019-Aug-21 15:40 202 3 gusting 9 21.1
2019-Aug-21 15:35 234 3 gusting 10 21.1
2019-Aug-21 15:30 244 5 gusting 12 21.1
2019-Aug-21 15:25 238 6 gusting 12 20.6
2019-Aug-21 15:20 220 6 gusting 11 20.6
2019-Aug-21 15:16 221 5 gusting 12 21.1
2019-Aug-21 15:10 227 5 gusting 12 21.1
2019-Aug-21 15:05 216 4 gusting 12 21.1
2019-Aug-21 15:01 217 6 gusting 13 21.1
2019-Aug-21 14:55 223 7 gusting 13 21.1
2019-Aug-21 14:50 204 5 gusting 14 21.1
2019-Aug-21 14:45 240 6 gusting 14 21.7
2019-Aug-21 14:40 220 6 gusting 10 21.7
2019-Aug-21 14:35 268 5 gusting 15 21.7
2019-Aug-21 14:31 238 5 gusting 13 21.7
2019-Aug-21 14:25 240 5 gusting 13 22.2
2019-Aug-21 14:20 229 4 gusting 13 22.2
2019-Aug-21 14:16 242 3 gusting 13 22.2
2019-Aug-21 14:10 263 4 gusting 13 21.7
2019-Aug-21 14:05 227 3 gusting 9 21.7
2019-Aug-21 14:00 236 2 gusting 14 21.7
2019-Aug-21 13:55 199 6 gusting 13 21.7
2019-Aug-21 13:50 206 4 gusting 10 21.7
2019-Aug-21 13:45 245 5 gusting 13 21.1
2019-Aug-21 13:40 206 6 gusting 13 21.1
2019-Aug-21 13:35 232 3 gusting 8 20.6
2019-Aug-21 13:30 219 4 gusting 12 20.0
2019-Aug-21 13:25 241 5 gusting 12 20.0
2019-Aug-21 13:20 234 6 gusting 12 20.6
2019-Aug-21 13:15 242 5 gusting 12 20.6
2019-Aug-21 13:10 247 5 gusting 12 20.6
2019-Aug-21 13:00 228 6 gusting 13 20.6
2019-Aug-21 12:55 227 6 gusting 13 21.1
2019-Aug-21 12:50 226 6 gusting 13 21.1
2019-Aug-21 12:45 241 5 gusting 13 21.1
2019-Aug-21 12:40 279 6 gusting 13 21.7
2019-Aug-21 12:35 227 6 gusting 12 21.7
2019-Aug-21 12:31 246 6 gusting 18 22.2
2019-Aug-21 12:25 219 4 gusting 13 22.2
2019-Aug-21 12:16 235 5 gusting 11 21.7
2019-Aug-21 12:10 205 5 gusting 11 22.2
2019-Aug-21 12:05 248 5 gusting 13 21.7
2019-Aug-21 11:55 204 7 gusting 13 21.7
2019-Aug-21 11:50 205 6 gusting 13 21.7
2019-Aug-21 11:45 196 6 gusting 11 21.7
2019-Aug-21 11:40 225 4 gusting 13 21.1
2019-Aug-21 11:30 231 6 gusting 12 21.1
2019-Aug-21 11:25 226 5 gusting 13 21.7
2019-Aug-21 11:20 293 4 gusting 13 21.7
2019-Aug-21 11:15 207 5 gusting 11 21.7
2019-Aug-21 11:10 302 1 gusting 8 21.1
2019-Aug-21 11:05 221 2 gusting 12 21.1
2019-Aug-21 11:00 230 3 gusting 12 21.1
2019-Aug-21 10:55 258 2 gusting 14 21.7
2019-Aug-21 10:50 229 6 gusting 14 21.7
2019-Aug-21 10:40 302 3 gusting 10 21.1
2019-Aug-21 10:35 312 4 gusting 10 21.1
2019-Aug-21 10:30 217 2 gusting 12 20.6
2019-Aug-21 10:25 308 5 gusting 12 20.6
2019-Aug-21 10:16 221 4 gusting 12 20.6
2019-Aug-21 10:10 223 3 gusting 13 20.0
2019-Aug-21 10:05 250 5 gusting 14 19.4
2019-Aug-21 10:01 208 6 gusting 14 18.9
2019-Aug-21 09:55 227 6 gusting 13 18.9
2019-Aug-21 09:50 209 4 gusting 10 19.4
2019-Aug-21 09:46 240 5 gusting 12 18.9
2019-Aug-21 09:40 223 6 gusting 13 18.9
2019-Aug-21 09:35 237 6 gusting 13 18.3
2019-Aug-21 09:33 237 4 gusting 12 18.3
2019-Aug-21 09:25 215 3 gusting 12 18.3
2019-Aug-21 09:20 228 5 gusting 13 18.9
2019-Aug-21 09:16 237 6 gusting 13 18.9
2019-Aug-21 09:11 263 5 gusting 11 18.9
2019-Aug-21 09:05 217 4 gusting 16 18.9
2019-Aug-21 09:01 212 4 gusting 16 18.9
2019-Aug-21 08:55 236 4 gusting 16 18.9
2019-Aug-21 08:50 228 7 gusting 13 18.9
2019-Aug-21 08:46 233 6 gusting 13 18.9
2019-Aug-21 08:40 223 6 gusting 15 18.9
2019-Aug-21 08:36 205 6 gusting 15 18.3
2019-Aug-21 08:31 250 7 gusting 13 18.3
2019-Aug-21 08:25 239 5 gusting 11 18.3
2019-Aug-21 08:20 243 5 gusting 13 18.3
2019-Aug-21 08:15 260 6 gusting 13 18.3
2019-Aug-21 08:10 239 6 gusting 13 17.8
2019-Aug-21 08:05 206 4 gusting 13 17.8
2019-Aug-21 08:00 239 6 gusting 15 17.2
2019-Aug-21 07:55 242 6 gusting 15 17.2
2019-Aug-21 07:50 229 5 gusting 13 16.7
2019-Aug-21 07:46 229 8 gusting 13 16.7
2019-Aug-21 07:40 221 6 gusting 13 16.1
2019-Aug-21 07:35 227 6 gusting 13 15.6
2019-Aug-21 07:31 212 5 gusting 12 15.6
2019-Aug-21 07:25 240 5 gusting 11 15.0
2019-Aug-21 07:20 228 6 gusting 13 15.0
2019-Aug-21 07:15 194 6 gusting 11 15.0
2019-Aug-21 07:10 197 6 gusting 14 14.4
2019-Aug-21 07:05 194 6 gusting 13 14.4
2019-Aug-21 07:00 218 6 gusting 10 14.4
2019-Aug-21 06:55 211 5 gusting 8 14.4
2019-Aug-21 06:50 213 4 gusting 10 14.4
2019-Aug-21 06:45 220 4 gusting 10 13.9
2019-Aug-21 06:40 209 5 gusting 10 13.9
2019-Aug-21 06:35 221 4 gusting 10 13.9
2019-Aug-21 06:25 243 4 gusting 10 13.9
2019-Aug-21 06:20 228 6 gusting 10 13.9
2019-Aug-21 06:10 176 6 gusting 11 13.9
2019-Aug-21 06:05 174 6 gusting 17 13.3
2019-Aug-21 06:00 190 7 gusting 17 13.3
2019-Aug-21 05:55 196 6 gusting 14 13.3
2019-Aug-21 05:50 190 6 gusting 10 13.3
2019-Aug-21 05:40 204 5 gusting 9 13.3
2019-Aug-21 05:35 190 2 gusting 6 13.3
2019-Aug-21 05:25 242 0 gusting 6 12.8
2019-Aug-21 05:20 216 1 gusting 6 12.8
2019-Aug-21 05:11 223 2 gusting 9 12.8
2019-Aug-21 05:06 219 5 gusting 11 12.8
2019-Aug-21 05:02 165 7 gusting 13 12.8